FREGAT R/B, 44300

Orbit data source: Space-Track

FREGAT R/B, 44300 is space debris in MEO originally from a launch on Mon, 27 May 2019 UTC launched from the Plesetsk Missile And Space Complex (PKMTR). Debris objects in space refer to the collection of defunct objects orbiting the Earth. Examples of debris include non-operational satellites, rocket bodies, and fragments generated from explosions, collisions, or faulty payload assembly.

Loading next visibility...
Identifier
44300, 2019-030B
Orbit
MEO
Country
Flag of CISCIS
Related business
Manufacturer
Lavochkin
Mission
Spacecraft
Bus & Motor
FREGAT, Unknown motor
Mass
1,000 kg wet, 1,000 kg dry
Launch date (UTC)
2019-05-27 (7 years ago)
Launch vehicle
Unknown
Launch site
Plesetsk Missile And Space Complex (PKMTR)
Object type
Payload
Rocket body
Debris
Shape & HBR
Cyl, 1.8 m
Radar Cross Section
8.354 m², Large (>1 m²)

Expand to show TLE details & history
Last TLE update: 21 hours ago

TLE from 21 hours ago
0 FREGAT R/B
1 44300U 19030B   26262.21433258 -.00000004  00000-0  00000-0 0  9995
2 44300  64.3044 193.0611 0067960 135.3277 225.2297  2.09028644 55858
Epoch: 2026-09-19T05:08Z
TLE epoch observation values (Epoch: 2026-09-19T05:08:38.334Z)
Latitude
-0.00002°
Longitude
117.77278°
Altitude
19,585.007 km
Speed
3.909 km/s
True Right ascension
12h 52m 14s
True Declination
0° 00' 00"
Sunlit
Object was in daylight at epoch
Visualization orbit readout
Latitude
Unknown
Longitude
Unknown
Altitude
Unknown
Speed
Unknown
Apparent Right ascension
Unknown
Apparent Declination
Unknown
Sunlit
N/A
Visualization observer readout
Local Sidereal Time
18:44:06
Azimuth
Unknown
Elevation
Unknown
Doppler factor
Unknown
Orbital elements
Apogee altitude
19,635.444 km
Perigee altitude
19,284.254 km
Semi-major axis
25,837.986 km
Eccentricity
0.0068
Inclination
64.3044°
RAAN
193.0611°
Arg. of periapsis
135.3277°
True anomaly
224.68012°
Mean anomaly
225.2297°
Eccentric anomaly
224.95458°
Mean motion
0.52258 °/min
Orbital period
688.89 mins
BSTAR
0
Loading maneuver chart data...
Computing Atmospheric mass density...
Loading historical data...
Loading historical data...
Loading historical data...
Loading historical data...
Loading historical data...
Loading historical data...
Loading historical data...
Other satellites on launch #30 in the year 2019 (2019-05-27 UTC)

Documentation

Showing up to 5 results
|